Log in  \/ 
x
x

Gillespie Operations

The Plus One Flyers, Inc SEE office is located at 1987 N.Marshall Ave, El Cajon 92020

Your Plus One key will open the lock box where the office key is located. PLEASE BE SURE TO PUT THE KEY BACK IN THE BOX.

We just did a major remodel of the facility and we now have a large meeting/ class room with a large screen TV for presentations. 

Go check it out!

 

Additional info
  • Operations Officer: Dave Eby
  • Phone Number: 619-279-7499
  • E-Mail: seeops@plusoneflyers.org
Comments
  • No comments found

Leave your comments

0 Character restriction
Your text should be more than 10 characters
terms and condition.
Special Instructions

Use your Plus One key to gain access to the real estate lock box.  This key will open the door.  Please remember to return the key to the lock box.

Gillespie Weather

[source: ADDS]
METAR
KSEE 182147Z 21010KT 10SM SKC 26/03 A3002 =
KNKX 182155Z 20006KT 10SM SCT250 28/08 A3002 RMK AO2 SLP159 T02830083 $ =
TAF
TAF KNKX 1821/1921 25008KT 9999 SCT250 QNH2999INS BECMG 1904/1906 VRB05KT 4800 BR BKN005 QNH2999INS TEMPO 1909/1915 OVC015 FM191630 VRB05KT 9999 SCT025 QNH3001INS BECMG 1919/1921 27008KT SCT025 QNH2995INS T28/1821Z T09/1914Z =
SR / SS: 14:49 / 01:07 UTC ( 2018-01-18)

Gillespie Operations Map